Location: Poughquag
(41.6090°N, 73.6820°W)
Time: 04:48:01
(UTC-04:00)

SR - Visible Passes

Search period start: 10 July 2020 00:00
Search period end: 20 July 2020 00:00
Orbit: 583 x 872 km, 66.7° (Epoch: 09 July)

Date Brightness Start Highest point End Pass type
(mag) Time Alt. Az. Time Alt. Az. Time Alt. Az.
11 Jul ? 04:20:26 10° SE 04:22:43 13° ESE 04:24:57 10° ENE visible
13 Jul ? 04:21:00 10° SSE 04:25:05 26° ESE 04:28:56 10° NE visible
14 Jul ? 03:33:48 10° SE 03:35:40 12° ESE 03:37:30 10° E visible
15 Jul ? 04:22:46 10° S 04:27:33 51° ESE 04:31:59 10° NE visible
16 Jul ? 03:34:39 12° SSE 03:38:01 24° ESE 03:41:43 10° ENE visible
17 Jul ? 02:47:19 10° ESE 02:48:37 11° ESE 02:49:55 10° E visible
17 Jul ? 04:26:01 15° SSW 04:30:06 81° WNW 04:34:38 10° NNE visible
18 Jul ? 03:37:54 24° S 03:40:28 47° ESE 03:44:50 10° NE visible
19 Jul ? 02:49:44 20° SE 02:50:57 22° ESE 02:54:31 10° ENE visible
19 Jul ? 04:29:09 15° WSW 04:32:45 41° NW 04:37:01 10° NNE visible
